Simultaneous Nadir Overpasses (SNOs) Predictions

Prediction of SNOs between LANDSAT-8 and METOP-A Satellite Orbit:

Table of predicted SNOs for the next 14.0 days since TLE Epoch: 6/11/2016
Index Date (LANDSAT-8) Time (LANDSAT-8) Lat,Lon (LANDSAT-8) SZA (LANDSAT-8 ) Date (METOP-A) Time (METOP-A) Lat,Lon (METOP-A) SZA (METOP-A ) Distance(km) Time Diff (sec)
1 06/11/2016 15:14:35 81.16, -8.00 60.27 06/11/2016 15:13:58 81.16, -8.03 60.25 0.52 37
2 06/11/2016 16:04:01 -81.18, 159.93 119.69 06/11/2016 16:04:37 -81.18, 159.86 119.68 1.19 36
3 06/14/2016 10:48:50 81.17, 58.60 60.13 06/14/2016 10:48:19 81.18, 58.79 60.14 3.28 31
4 06/14/2016 11:38:16 -81.19,-133.44 119.83 06/14/2016 11:38:58 -81.19,-133.28 119.79 2.75 42
5 06/17/2016 06:23:05 81.18, 125.16 60.03 06/17/2016 06:22:41 81.18, 125.21 60.02 0.94 24
6 06/17/2016 07:12:32 -81.18, -67.23 119.98 06/17/2016 07:13:21 -81.18, -67.21 119.95 0.75 49
7 06/20/2016 01:57:20 81.16,-168.70 59.93 06/20/2016 01:57:03 81.17,-168.78 59.91 1.44 17
8 06/20/2016 02:46:46 -81.19, -0.69 120.02 06/20/2016 02:47:42 -81.19, -0.77 120.00 1.41 56
9 06/22/2016 21:31:35 81.16,-102.22 59.93 06/22/2016 21:31:25 81.16,-102.41 59.90 3.15 10




NCC Satellite Simultaneous Nadir Overpasses (SNOs) Prediction Service
